Regional Weather Roundup
Issued by NWS Sioux Falls, SD

Home | Current Version | Previous Version | Text Only | Print | Product List | Glossary On
Versions: 1 2 3 4 5 6 7 8 9 10 11 12 13 14 15 16 17 18 19 20 21 22 23 24 25 26 27 28 29 30 31 32 33 34 35 36 37 38 39 40 41 42 43 44 45 46 47 48 49 50
000
ASUS43 KFSD 310410
RWRFSD

WEATHER ROUNDUP FOR SE SOUTH DAKOTA/SW MINNESOTA/NW IOWA
NATIONAL WEATHER SERVICE SIOUX FALLS SD
1000 PM CST FRI JAN 30 2015

NOTE: "FAIR" INDICATES FEW OR NO CLOUDS BELOW 12,000 FEET WITH NO
SIGNIFICANT WEATHER AND OR OBSTRUCTIONS TO VISIBILITY.


SDZ038>040-050-052>070-310500-
SOUTHEAST SOUTH DAKOTA

CITY           SKY/WX    TMP DP  RH WIND       PRES   REMARKS
CHAMBERLAIN    MOCLDY    32  26  77 N5        30.13F WCI  27
HURON          CLEAR     25  23  92 CALM      30.14S
MADISON        FAIR      32  32 100 SW8       30.12F WCI  25
MITCHELL       CLEAR     29  25  85 NW7       30.14S WCI  22
SIOUX FALLS    CLEAR     33  27  78 SW7       30.15F WCI  27
WINNER         FAIR      34  24  67 W3        30.13S
YANKTON        PTCLDY    34  27  75 SE5       30.17F WCI  30
$$

MNZ071-072-080-081-089-090-097-098-310500-
SOUTHWEST MINNESOTA

CITY           SKY/WX    TMP DP  RH WIND       PRES   REMARKS
FAIRMONT       CLEAR     28  21  74 S9        30.18F WCI  20
JACKSON        CLEAR     32  25  74 SW14      30.17F WCI  22
LUVERNE        CLEAR     32  28  86 S6        30.17S WCI  26
MARSHALL       CLEAR     34  27  75 SW18      30.14F WCI  23
MONTEVIDEO     CLEAR     27  25  93 CALM      30.15S
PIPESTONE      CLEAR     30  27  86 SW9       30.13F WCI  22
REDWOOD FALLS  CLEAR     25  22  88 S6        30.15F WCI  18
TRACY          CLEAR     33  28  83 SW17G23   30.14S WCI  22
WINDOM         CLEAR     30  27  86 SW14      30.15F WCI  20
WORTHINGTON    CLEAR     30  25  80 SW20      30.15F WCI  18
$$

IAZ001>003-012>014-020>022-031-032-NEZ013-014-SDZ071-310500-
NORTHWEST IOWA

CITY           SKY/WX    TMP DP  RH WIND       PRES   REMARKS
CHEROKEE       CLEAR     28  26  91 S7        30.22F WCI  20
DENISON        PTCLDY    30  25  80 S12G22    30.21F WCI  21
ESTHERVILLE    CLEAR     28  23  81 SW15      30.18S WCI  16
LE MARS        CLEAR     30  27  86 S9        30.20F WCI  22
ORANGE CITY    CLEAR     28  25  86 S8        30.18F WCI  20
SHELDON        CLEAR     30  27  86 S9        30.18S WCI  22
SIOUX CITY     MOCLDY    28  24  85 SE7       30.22F WCI  21
SPENCER        CLEAR     29  24  82 S12       30.19F WCI  19
STORM LAKE     CLEAR     28  25  86 SW13      30.22F WCI  18
$$

ABBREVIATIONS USED IN REMARKS
   TC - TEMPERATURE IN CELSIUS
  WCI - WIND CHILL INDEX
   HX - HEAT INDEX
  VSB - VISIBILITY



USA.gov is the U.S. government's official web portal to all federal, state and local government web resources and services.